Location: Arcones
(41.1182°N, 3.7238°W)
Time: 16:26:37
(UTC+00:00)

Cosmos 1607 - Pass Details

Date: 11 December 2025
Orbit: 925 x 976 km, 65.0° (Epoch: 16 January)

Event Time Altitude Azimuth Distance (km) Brightness Sun altitude
Rises 17:17:11 0° 329° (NNW) 3,611 7.1 -6.0°
Reaches altitude 10° 17:19:44 10° 331° (NNW) 2,671 6.4 -6.4°
Maximum altitude 17:25:58 71° 56° (NE) 1,010 3.9 -7.5°
Drops below altitude 10° 17:32:15 10° 140° (SE) 2,692 6.2 -8.6°
Sets 17:34:50 0° 142° (SE) 3,642 6.8 -9.0°
